[Iaude] MPEC F55: 2024 FQ1 [a=1.88,e=0.56,i=6.5,H=25.3]
    mpec at cfa.harvard.edu 
    mpec at cfa.harvard.edu
       
    Thu Mar 21 03:27:58 EDT 2024
    
    
  
M.P.E.C. 2024-F55                                Issued 2024 March 21, 07:26 UT
     The Minor Planet Electronic Circulars contain information on unusual
         minor planets, routine data on comets and natural satellites,
         and occasional editorial announcements.  They are published
    on behalf of Division F of the International Astronomical Union by the
          Minor Planet Center, Smithsonian Astrophysical Observatory,
                          Cambridge, MA 02138, U.S.A.
			  
             Prepared using the Tamkin Foundation Computer Network
                              MPC at CFA.HARVARD.EDU
            URL https://www.minorplanetcenter.net/    ISSN 1523-6714
                                    2024 FQ1                                    
Observations:
     K24F01Q* C2024 03 19.25619710 42 15.635-00 25 11.60         20.34GVEF055V00
     K24F01Q  C2024 03 19.26182710 42 18.950-00 24 48.10         21.01GVEF055V00
     K24F01Q  C2024 03 19.26742710 42 22.284-00 24 24.59         20.36GVEF055V00
     K24F01Q  C2024 03 19.27303310 42 25.578-00 24 01.30         20.28GVEF055V00
     K24F01Q KC2024 03 19.33738 10 43 03.45 -00 19 33.2          20.6 RVEF055691
     K24F01Q KC2024 03 19.34665 10 43 08.91 -00 18 54.9          20.2 RVEF055691
     K24F01Q KC2024 03 19.35591 10 43 14.32 -00 18 16.3          20.3 RVEF055691
     K24F01Q KC2024 03 19.43492010 44 00.913-00 12 54.22         20.88GVEF055I52
     K24F01Q KC2024 03 19.43733710 44 02.364-00 12 44.46         21.09GVEF055I52
     K24F01Q KC2024 03 19.43975110 44 03.797-00 12 34.67         21.53GVEF055I52
     K24F01Q KC2024 03 19.44216810 44 05.215-00 12 24.41         21.06GVEF055I52
     K24F01Q KC2024 03 20.15622010 51 02.42 +00 32 54.2          20.7 GVEF055H21
     K24F01Q KC2024 03 20.16349110 51 06.11 +00 33 20.0          20.6 GVEF055H21
     K24F01Q KC2024 03 20.16871210 51 08.79 +00 33 38.7          20.9 GVEF055H21
     K24F01Q KC2024 03 20.19680610 51 25.232+00 35 29.29         20.89GVEF055I52
     K24F01Q KC2024 03 20.19982010 51 26.730+00 35 39.73         20.75GVEF055I52
     K24F01Q KC2024 03 20.20285210 51 28.253+00 35 50.75         20.51GVEF055I52
     K24F01Q KC2024 03 20.20587810 51 29.790+00 36 01.62         20.38GVEF055I52
     K24F01Q KC2024 03 21.26734 11 00 12.94 +01 33 46.8          21.4 RVEF055291
     K24F01Q KC2024 03 21.27536 11 00 16.30 +01 34 11.6                VEF055291
     K24F01Q KC2024 03 21.28350 11 00 19.82 +01 34 35.2          21.0 RVEF055291
Observer details:
291 LPL/Spacewatch II.  Observer M. T. Read.  1.8-m f/2.7 reflector + CCD.
691 Steward Observatory, Kitt Peak-Spacewatch.  Observer M. T. Read.  0.9-m
    f/3 reflector + CCD.
H21 Astronomical Research Observatory, Westfield.  Observer R. Holmes.
    Measurers T. Linder, R. Holmes, L. Horn.  0.76-m f/3.0 astrograph + CCD.
I52 Steward Observatory, Mt. Lemmon Station.  Observer R. A. Kowalski.
    Measurers T. Beuden, V. F. Carvajal, D. Fay, J. B. Fazekas, D. C. Fuls, A.
    R. Gibbs, A. D. Grauer, H. Groeller, J. K. Hogan, R. A. Kowalski, S. M.
    Larson, G. J. Leonard, D. Rankin, R. L. Seaman, F. C. Shelly, K. W.
    Wierzchos.  1.0-m prime focus + CCD.
V00 Kitt Peak-Bok.  Observers V. F. Carvajal, H. Groeller.  Measurers M. J.
    Brucker, C. E. Woodward, T. Beuden, V. F. Carvajal, D. Fay, J. B. Fazekas,
    D. C. Fuls, A. R. Gibbs, H. Groeller, J. K. Hogan, R. A. Kowalski, S. M.
    Larson, C. Lejoly, G. J. Leonard, R. A. Mastaler, R. S. McMillan, D.
    Rankin, R. L. Seaman, F. C. Shelly, K. W. Wierzchos.  2.25-m reflector +
    4x4K mosaic CCD.
Orbital elements:
2024 FQ1                                                 Earth MOID = 0.0309 AU
Epoch 2024 Mar. 31.0 TT = JDT 2460400.5                 MPC                     
M  24.05507              (2000.0)            P               Q                  
n   0.38274825     Peri.  284.71463     -0.30333410     -0.95286643             
a   1.8787136      Node   182.96252     +0.91190304     -0.28850806             
e   0.5630456      Incl.    6.47683     +0.27644396     -0.09385448             
P   2.58           H   25.32          G   0.15           U   8                  
Residuals in seconds of arc
240319 V00  0.0   0.1+    240319 I52  0.1-  0.3-    240320 I52  0.5+  0.2+
240319 V00  0.2-  0.0     240319 I52  0.1+  0.4-    240320 I52  0.1+  0.1-
240319 V00  0.2+  0.1+    240319 I52  0.1+  0.4-    240320 I52  0.1-  0.1+
240319 V00  0.1-  0.1-    240319 I52  0.1-  0.0     240320 I52  0.0   0.2+
240319 691  0.2+  0.2+    240320 H21  0.1+  0.2+    240321 291  1.0-  0.4-
240319 691  0.4+  0.2+    240320 H21  0.2-  0.1-    240321 291  1.5-  0.4+
240319 691  0.1-  0.6+    240320 H21  0.0   0.2-    240321 291  0.3-  0.3-
Ephemeris:
2024 FQ1                 a,e,i = 1.88, 0.56, 6                   q = 0.8209
Date    TT    R. A. (2000) Decl.     Delta      r    Elong.  Phase     V
2024 02 20    01 18 47.3 -15 52 55   0.1653  0.8817    46.0   126.3    26.5
...
2024 03 06    03 45 30.4 -23 31 54   0.05502 0.9738    69.1   107.9    23.0
...
2024 03 14    09 07 15.8 -10 35 39   0.04974 1.0332   140.6    37.6    20.4
...
2024 03 20    10 49 34.8 +00 24 25   0.08837 1.0806   162.8    15.8    21.1
2024 03 21    10 58 08.3 +01 20 55   0.09596 1.0887   164.0    14.6    21.2
2024 03 22    11 05 28.6 +02 08 53   0.1037  1.0968   164.7    13.8    21.4
...
2024 03 28    11 33 56.4 +05 05 27   0.1532  1.1464   164.4    13.5    22.3
...
2024 04 05    11 52 54.7 +06 39 09   0.2250  1.2139   159.7    16.6    23.4
...
2024 04 20    12 11 52.7 +06 58 19   0.3770  1.3420   149.0    22.7    24.9
A. U. Tomatic                (C) Copyright 2024 MPC           M.P.E.C. 2024-F55
    
    
More information about the Iaude
mailing list